sat.trackr.live / text

‹ back to catalog

STARLINK-31373

NORAD 58965 · 2024-031A

PAYLOAD ACTIVE UNKNOWN

§ Identity

Operator
Country
US
Launch date
2024-02-15
Launch site
AFWTR
Launch vehicle
Mass (kg)
RCS (m²)

Purposes: comms

External: N2YO · Heavens-Above · Gunter

§ Orbital elements

Epoch: 2026-09-20T23:01:15.022560Z

Period
93.85 min
Inclination
53.1586°
Eccentricity
0.0001376
Mean motion
15.34382873 rev/d
Perigee alt
461.8 km
Apogee alt
463.7 km
Semi-major
6,840.9 km
B*
6.6474e-5
RAAN
107.2914°
Arg perigee
91.1023°
Mean anomaly
269.0137°
Rev number
14,646

§ Raw data

STARLINK-313731 58965U 24031A   26263.95920165  .00001869  00000+0  66474-4 0  99932 58965  53.1586 107.2914 0001376  91.1023 269.0137 15.34382873146463

JSON: /api/v1/satellites/58965 · /tle

For live sub-satellite position, see the globe view (requires WebGL).

§ Visibility from observer

Set your observer location to see the next 7 days of passes ≥ 10°. The values pass through the URL so the page stays shareable.

No JS? Fill the form by hand. The geolocation button needs JavaScript.